Regional Weather Roundup
Issued by NWS

Home | Current Version | Previous Version | Text Only | Print | Product List | Glossary On
Versions: 1 2 3 4 5 6 7 8 9 10 11 12 13 14 15 16 17 18 19 20 21 22 23 24 25 26 27 28 29 30 31 32 33 34 35 36 37 38 39 40 41 42 43 44 45 46 47 48 49 50
000
ASUS44 KFWD 031001
RWRTX
NORTH TEXAS HOURLY WEATHER ROUNDUP
NATIONAL WEATHER SERVICE FORT WORTH TX
500 AM CDT TUE AUG 03 2021

NOTE: "FAIR" INDICATES FEW OR NO CLOUDS BELOW 12,000 FEET WITH NO
SIGNIFICANT WEATHER AND/OR OBSTRUCTIONS TO VISIBILITY.

TXZ118-119-031100-
DALLAS/FORT WORTH METROPLEX

CITY           SKY/WX    TMP DP  RH WIND       PRES   REMARKS
DFW AIRPORT    MOCLDY    76  70  82 NW5       29.99F
DALLAS LOVE    FAIR      74  71  91 CALM      30.00S
FTW MEACHAM    MOCLDY    71  67  87 N6        30.01S
DAL-EXECUTIVE  FAIR      72  70  93 N3        30.00S
FTW-ALLIANCE   MOCLDY    72  65  78 N5        30.01S
FTW-NAS-JRB    FAIR      74  67  78 NW5       30.02S
ARLINGTON      FAIR      75  71  87 CALM      30.01S
GRAND PRAIRIE  FAIR      74  74 100 CALM      30.02F
ADDISON        FAIR      74  73  96 CALM      30.02F
LANCASTER      FAIR      71  70  97 CALM      30.01S FOG
$$

TXZ091>094-102>105-117-120-121-131>134-031100-
NORTH CENTRAL TEXAS

CITY           SKY/WX    TMP DP  RH WIND       PRES   REMARKS
SHRMAN/DENISON NOT AVBL
BOWIE          FAIR      67  63  87 N7        30.05S
DECATUR        FAIR      71  62  72 NE5       30.03F
DENTON         FAIR      68  65  90 N3        30.02S
MCKINNEY       FAIR      72  69  90 N3        30.01S
TERRELL        FAIR      73  73 100 N5        30.00F
WAXAHACHIE     FAIR      71  71 100 CALM      30.01F FOG
CLEBURNE       MOCLDY    72  70  94 N5        30.03S
GRANBURY       FAIR      69  64  84 W5        30.04S
$$

TXZ083>090-098>101-113>116-127>130-139>142-154-155-031100-
WESTERN NORTH TEXAS

CITY           SKY/WX    TMP DP  RH WIND       PRES   REMARKS
WICHITA FALLS  FAIR      65  61  87 N7        30.05F
WF-KICKAPOO    FAIR      69  60  74 N3        30.07S
VERNON         FAIR      64  62  94 N3        30.09S
ABILENE        FAIR      61  57  87 CALM      30.10F
ABILENE-DYESS  FAIR      64  55  74 CALM      30.08F
CISCO          CLOUDY    64  59  82 NW5       30.06F
RANGER         FAIR      65  59  80 NW5       30.06F
MINERAL WELLS  FAIR      68  63  84 CALM      30.02S
STEPHENVILLE   FAIR      69  61  76 NW6       30.07F
COMANCHE       FAIR      68  60  75 NW6       30.06F
BRADY            N/A    N/A N/A N/A MISG        N/A
SAN SABA       FAIR      68  65  89 CALM      30.05F
$$

TXZ143>147-156>162-174-175-031100-
CENTRAL TEXAS

CITY           SKY/WX    TMP DP  RH WIND       PRES   REMARKS
WACO           MOCLDY    76  73  91 NW6       29.98F
WACO-MCGREGOR  CLOUDY    74  73  97 NW3       30.00S
HILLSBORO      CLOUDY    73  73 100 CALM      30.00S FOG
CORSICANA      CLOUDY    75  74  96 N5        29.99F FOG
HEARNE         CLOUDY    76  75  95 NW3       29.97S FOG
TEMPLE         CLOUDY    74  74 100 N5        29.99F
KILLEEN        FAIR      73  70  89 NW7       29.99S
KILLEEN-SKYLRK MOCLDY    75  72  90 N7        30.00S
FORT HOOD      FAIR      73  71  91 N9        30.00S
HAMILTON       FAIR      69  64  83 NW5       30.04F
$$

TXZ095>097-106>112-122>126-135>138-148>153-164>167-031100-
EAST TEXAS

CITY           SKY/WX    TMP DP  RH WIND       PRES   REMARKS
PARIS          FAIR      70  68  93 CALM      30.02S
GILMER         FAIR      71  70  98 CALM      29.99S FOG
TYLER          FAIR      75  73  93 N3        29.98F
LONGVIEW       CLOUDY    73  71  93 CALM      29.97S
JACKSONVILLE   CLOUDY    74  74 100 CALM      30.00S FOG
HENDERSON      CLOUDY    74  73  95 N3        29.99R FOG
CENTER         CLOUDY    77  75  94 CALM      29.97S FOG
NACOGDOCHES    CLOUDY    74  73  97 CALM      29.96F
LUFKIN         MOCLDY    75  74  96 CALM      29.95F
$$

SUPPLEMENTAL OBSERVATIONS (NWS FORT WORTH AREA)

CITY           SKY/WX    TMP DP  RH WIND       PRES   REMARKS
$$

SUPPLEMENTAL OBSERVATIONS (NWS NORMAN AREA)

CITY           SKY/WX    TMP DP  RH WIND       PRES   REMARKS
GOODLETT         N/A     65  57  76 NW6       30.10S
ODELL            N/A     60  59  95 W3        30.10S
CROWELL          N/A     67  59  76 NW6       30.10F
KNOX CITY        N/A     64  62  93 CALM      30.09F
SEYMOUR          N/A     61  58  90 CALM      30.09S
$$

SUPPLEMENTAL OBSERVATIONS (NWS SAN ANGELO AREA)

CITY           SKY/WX    TMP DP  RH WIND       PRES   REMARKS
WEINERT          N/A     64  62  90 CALM      30.10S
HASKELL          N/A     63  61  91 CALM      30.10S
THROCKMORTON     N/A     67  61  80 CALM      30.08S
STAMFORD         N/A     64  62  91 NW5       30.10F
CLYDE            N/A     62  58  87 CALM      30.11S
$$

SUPPLEMENTAL OBSERVATIONS (NWS SHREVEPORT AREA)

CITY           SKY/WX    TMP DP  RH WIND       PRES   REMARKS
$$

SUPPLEMENTAL OBSERVATIONS ARE A COLLECTION OF AUTOMATED INSTRUMENTS
THAT ARE MAINTAINED BY A VARIETY OF FEDERAL AND STATE AGENCIES.
CERTAIN ELEMENTS...SUCH AS HUMIDITY VALUES AND SUSTAINED WIND
SPEEDS...MAY BE APPROXIMATED.




USA.gov is the U.S. government's official web portal to all federal, state and local government web resources and services.